TimeCST,TemperatureF,Dew PointF,Humidity,Sea Level PressureIn,VisibilityMPH,Wind Direction,Wind SpeedMPH,Gust SpeedMPH,PrecipitationIn,Events,Conditions,WindDirDegrees,DateUTC
12:15 AM,43.2,34.9,73,30.17,10.0,South,13.8,-,N/A,,Clear,170,2012-11-17 06:15:00
12:35 AM,43.0,34.7,73,30.16,10.0,South,13.8,-,N/A,,Clear,170,2012-11-17 06:35:00
12:55 AM,42.8,34.3,72,30.16,10.0,SSE,12.7,18.4,N/A,,Clear,160,2012-11-17 06:55:00
1:15 AM,42.3,34.0,72,30.15,10.0,SSE,11.5,-,N/A,,Clear,160,2012-11-17 07:15:00
1:35 AM,41.5,33.8,74,30.15,10.0,SE,9.2,-,N/A,,Clear,140,2012-11-17 07:35:00
1:55 AM,41.0,33.4,74,30.14,10.0,SE,9.2,-,N/A,,Clear,140,2012-11-17 07:55:00
2:15 AM,40.3,33.1,75,30.14,10.0,SE,10.4,-,N/A,,Clear,140,2012-11-17 08:15:00
2:35 AM,39.2,32.7,78,30.13,10.0,SSE,9.2,-,N/A,,Clear,150,2012-11-17 08:35:00
2:55 AM,39.2,32.9,78,30.13,10.0,SSE,11.5,-,N/A,,Clear,160,2012-11-17 08:55:00
3:15 AM,39.2,32.9,78,30.12,10.0,SSE,10.4,-,N/A,,Clear,150,2012-11-17 09:15:00
3:35 AM,38.5,32.4,79,30.12,10.0,SSE,10.4,-,N/A,,Clear,150,2012-11-17 09:35:00
3:55 AM,37.8,32.2,80,30.12,10.0,SSE,10.4,-,N/A,,Clear,150,2012-11-17 09:55:00
4:15 AM,37.8,32.4,81,30.11,10.0,SSE,9.2,-,N/A,,Clear,150,2012-11-17 10:15:00
4:35 AM,37.4,32.2,81,30.11,10.0,SSE,9.2,-,N/A,,Clear,150,2012-11-17 10:35:00
4:55 AM,37.4,32.0,81,30.11,10.0,SSE,10.4,-,N/A,,Clear,150,2012-11-17 10:55:00
5:15 AM,37.8,32.2,80,30.10,10.0,SSE,11.5,-,N/A,,Clear,150,2012-11-17 11:15:00
5:35 AM,38.3,32.2,79,30.10,10.0,SSE,15.0,-,N/A,,Clear,160,2012-11-17 11:35:00
5:55 AM,38.8,32.4,78,30.10,10.0,SSE,11.5,-,N/A,,Clear,160,2012-11-17 11:55:00
6:15 AM,38.5,32.2,78,30.10,10.0,SSE,10.4,-,N/A,,Clear,160,2012-11-17 12:15:00
6:35 AM,38.3,32.2,79,30.11,10.0,SSE,8.1,-,N/A,,Clear,150,2012-11-17 12:35:00
6:55 AM,38.3,32.0,78,30.10,10.0,SSE,6.9,-,N/A,,Clear,150,2012-11-17 12:55:00
7:15 AM,37.8,32.0,80,30.10,10.0,SSE,9.2,-,N/A,,Clear,150,2012-11-17 13:15:00
7:35 AM,36.5,31.6,83,30.10,10.0,SSE,9.2,-,N/A,,Clear,150,2012-11-17 13:35:00
7:55 AM,36.5,31.6,83,30.10,10.0,SE,6.9,-,N/A,,Clear,140,2012-11-17 13:55:00
8:15 AM,37.8,32.0,80,30.11,10.0,SSE,6.9,-,N/A,,Clear,150,2012-11-17 14:15:00
8:35 AM,38.1,32.2,79,30.11,10.0,SSE,8.1,-,N/A,,Clear,150,2012-11-17 14:35:00
8:55 AM,37.9,32.0,79,30.11,10.0,SSE,8.1,-,N/A,,Clear,150,2012-11-17 14:55:00
9:15 AM,37.8,32.0,80,30.11,10.0,SSE,6.9,-,N/A,,Clear,150,2012-11-17 15:15:00
9:35 AM,41.7,33.6,73,30.11,10.0,South,10.4,-,N/A,,Clear,170,2012-11-17 15:35:00
9:55 AM,45.1,34.2,65,30.11,10.0,South,10.4,-,N/A,,Clear,180,2012-11-17 15:55:00
10:15 AM,46.6,34.7,63,30.12,10.0,SSW,10.4,-,N/A,,Clear,200,2012-11-17 16:15:00
10:35 AM,48.0,35.2,61,30.11,10.0,South,12.7,-,N/A,,Clear,190,2012-11-17 16:35:00
11:55 AM,50.9,36.0,57,30.09,10.0,SW,8.1,-,N/A,,Clear,220,2012-11-17 17:55:00
12:15 PM,52.5,36.3,54,30.08,10.0,SSW,6.9,-,N/A,,Clear,200,2012-11-17 18:15:00
12:35 PM,53.2,35.8,52,30.08,10.0,SSE,8.1,-,N/A,,Clear,160,2012-11-17 18:35:00
12:55 PM,54.0,35.8,50,30.07,10.0,South,6.9,-,N/A,,Clear,190,2012-11-17 18:55:00
1:15 PM,54.9,35.6,48,30.06,10.0,SSW,6.9,-,N/A,,Clear,200,2012-11-17 19:15:00
1:35 PM,55.6,34.9,46,30.06,10.0,SSW,6.9,-,N/A,,Clear,200,2012-11-17 19:35:00
1:55 PM,56.8,34.5,43,30.05,10.0,South,6.9,-,N/A,,Clear,180,2012-11-17 19:55:00
2:15 PM,57.6,34.2,41,30.05,10.0,South,9.2,-,N/A,,Clear,180,2012-11-17 20:15:00
2:35 PM,58.3,34.0,40,30.05,10.0,South,9.2,-,N/A,,Clear,190,2012-11-17 20:35:00
2:55 PM,59.2,33.8,38,30.05,10.0,South,8.1,-,N/A,,Clear,190,2012-11-17 20:55:00
3:15 PM,59.2,33.8,38,30.05,10.0,South,8.1,-,N/A,,Clear,190,2012-11-17 21:15:00
3:35 PM,59.0,33.8,39,30.05,10.0,South,8.1,-,N/A,,Clear,180,2012-11-17 21:35:00
3:55 PM,59.0,33.3,38,30.05,10.0,South,6.9,-,N/A,,Clear,190,2012-11-17 21:55:00
4:15 PM,59.0,33.3,38,30.06,10.0,South,8.1,-,N/A,,Clear,190,2012-11-17 22:15:00
4:35 PM,57.7,33.1,39,30.06,10.0,South,9.2,-,N/A,,Clear,190,2012-11-17 22:35:00
4:55 PM,55.6,33.3,43,30.06,10.0,South,5.8,-,N/A,,Clear,170,2012-11-17 22:55:00
5:15 PM,52.3,33.6,49,30.05,10.0,South,8.1,-,N/A,,Clear,170,2012-11-17 23:15:00
5:35 PM,50.4,33.1,52,30.06,10.0,South,5.8,-,N/A,,Clear,180,2012-11-17 23:35:00
5:55 PM,48.7,32.7,54,30.07,10.0,South,4.6,-,N/A,,Clear,190,2012-11-17 23:55:00
6:15 PM,45.7,32.0,59,30.07,10.0,South,3.5,-,N/A,,Clear,170,2012-11-18 00:15:00
6:35 PM,46.6,33.3,60,30.07,10.0,Calm,Calm,-,N/A,,Clear,0,2012-11-18 00:35:00
6:55 PM,47.1,32.9,58,30.06,10.0,Calm,Calm,-,N/A,,Clear,0,2012-11-18 00:55:00
7:15 PM,41.7,29.8,63,30.06,10.0,Calm,Calm,-,N/A,,Clear,0,2012-11-18 01:15:00
7:35 PM,39.6,30.9,71,30.06,10.0,Calm,Calm,-,N/A,,Clear,0,2012-11-18 01:35:00
7:55 PM,37.6,28.9,71,30.06,7.0,Calm,Calm,-,N/A,,Clear,0,2012-11-18 01:55:00
8:15 PM,35.1,28.0,76,30.06,7.0,Calm,Calm,-,N/A,,Clear,0,2012-11-18 02:15:00
8:35 PM,34.0,27.1,76,30.06,7.0,East,3.5,-,N/A,,Clear,80,2012-11-18 02:35:00
8:55 PM,33.6,27.3,78,30.06,10.0,Calm,Calm,-,N/A,,Clear,0,2012-11-18 02:55:00
9:15 PM,33.4,27.5,79,30.06,10.0,Calm,Calm,-,N/A,,Clear,0,2012-11-18 03:15:00
9:35 PM,32.0,26.1,79,30.06,10.0,Calm,Calm,-,N/A,,Clear,0,2012-11-18 03:35:00
9:55 PM,32.5,27.3,81,30.06,10.0,Calm,Calm,-,N/A,,Clear,0,2012-11-18 03:55:00
10:15 PM,32.5,27.1,80,30.06,10.0,SE,3.5,-,N/A,,Clear,140,2012-11-18 04:15:00
10:35 PM,32.0,26.2,79,30.06,10.0,Calm,Calm,-,N/A,,Clear,0,2012-11-18 04:35:00
10:55 PM,32.5,26.8,79,30.06,10.0,Calm,Calm,-,N/A,,Clear,0,2012-11-18 04:55:00
11:15 PM,30.9,24.3,76,30.06,10.0,Calm,Calm,-,N/A,,Clear,0,2012-11-18 05:15:00
11:35 PM,30.2,24.4,79,30.06,10.0,Calm,Calm,-,N/A,,Clear,0,2012-11-18 05:35:00
11:55 PM,32.9,27.7,81,30.06,10.0,Calm,Calm,-,N/A,,Clear,0,2012-11-18 05:55:00